Lamoni, IA

6:37 AM CST on February 28, 2017 (GMT -0600)
Lamoni Municipal

Weather History for KLWD - February, 2013

Change the Weather History Date:

Saturday, February 16, 2013

  Actual Average Record
Temperature  
Mean Temperature 24 °F 28 °F  
Max Temperature 35 °F 38 °F 68 °F (2017)
Min Temperature 12 °F 19 °F -15 °F (1979)
Degree Days  
Heating Degree Days 41 37  
Month to date heating degree days 553 615  
Since 1 July heating degree days 3926 4307  
Cooling Degree Days 0 0  
Month to date cooling degree days 0 0  
Year to date cooling degree days 0 0  
Moisture  
Dew Point 13 °F    
Average Humidity 63    
Maximum Humidity 88    
Minimum Humidity 38    
Precipitation  
Precipitation 0.00 in 0.05 in 0.67 in (1976)
Month to date precipitation 0.64 0.76  
Sea Level Pressure  
Sea Level Pressure 30.23 in    
Wind  
Wind Speed 6 mph (WSW)    
Max Wind Speed 14 mph    
Max Gust Speed 20 mph    
Visibility 10 miles    
Events      
T = Trace of Precipitation, MM = Missing Value Source: NWS Daily Summary

Daily Weather History Graph

Daily Weather History Graph

Search for Another Location

Airport or City:

Trip Planner

Search our weather history database for the weather conditions in past years. The results will help you decide how hot, cold, wet, or windy it might be!

Date:

Astronomy

Feb. 16, 2013 Rise Set
Actual Time 7:07 AM CST 5:52 PM CST
Civil Twilight 6:39 AM CST 6:20 PM CST
Nautical Twilight 6:07 AM CST 6:52 PM CST
Astronomical Twilight 5:36 AM CST 7:23 PM CST
Moon 10:18 AM CST (2/16) No Moon Set
Length of Visible Light 11h 40m
Length of Day
10h 44m
Waxing Crescent, 39% of the Moon is Illuminated
Feb 16
Waxing Crescent
Feb 17
First Quarter
Feb 25
Full
Mar 4
Last Quarter
Mar 11
New

Hourly Weather History & Observations

Time (CST) Temp. Windchill Dew Point Humidity Pressure Visibility Wind Dir Wind Speed Gust Speed Precip Events Conditions
12:53 AM 17.1 °F 7.6 °F 10.9 °F 77% 30.33 in 10.0 mi North 6.9 mph - N/A   Clear
1:53 AM 16.0 °F 7.4 °F 10.9 °F 81% 30.33 in 10.0 mi NNW 5.8 mph - N/A   Clear
2:53 AM 15.1 °F 7.7 °F 10.9 °F 84% 30.32 in 10.0 mi NNW 4.6 mph - N/A   Clear
3:53 AM 12.9 °F 5.2 °F 9.0 °F 84% 30.31 in 10.0 mi NNW 4.6 mph - N/A   Clear
4:53 AM 12.9 °F 5.2 °F 9.0 °F 84% 30.31 in 10.0 mi West 4.6 mph - N/A   Clear
5:53 AM 12.9 °F 6.9 °F 9.0 °F 84% 30.30 in 10.0 mi West 3.5 mph - N/A   Clear
6:53 AM 12.9 °F 6.9 °F 9.0 °F 84% 30.31 in 10.0 mi WSW 3.5 mph - N/A   Clear
7:53 AM 15.1 °F 7.7 °F 12.0 °F 88% 30.32 in 10.0 mi West 4.6 mph - N/A   Clear
8:53 AM 19.0 °F 12.3 °F 12.9 °F 77% 30.30 in 10.0 mi WSW 4.6 mph - N/A   Clear
9:53 AM 21.9 °F 15.7 °F 15.1 °F 75% 30.28 in 10.0 mi WSW 4.6 mph - N/A   Clear
10:53 AM 26.1 °F 17.6 °F 16.0 °F 66% 30.27 in 10.0 mi WSW 8.1 mph - N/A   Partly Cloudy
11:53 AM 28.9 °F 20.4 °F 15.1 °F 56% 30.24 in 10.0 mi SW 9.2 mph - N/A   Partly Cloudy
12:53 PM 32.0 °F 25.6 °F 15.1 °F 50% 30.19 in 10.0 mi SW 6.9 mph 16.1 mph N/A   Clear
1:53 PM 34.0 °F 25.0 °F 15.1 °F 46% 30.17 in 10.0 mi WSW 12.7 mph 16.1 mph N/A   Clear
2:53 PM 35.1 °F 30.1 °F 12.9 °F 40% 30.15 in 10.0 mi WSW 5.8 mph - N/A   Clear
3:53 PM 35.1 °F 27.9 °F 12.9 °F 40% 30.15 in 10.0 mi WSW 9.2 mph - N/A   Overcast
4:53 PM 33.1 °F 24.9 °F 12.9 °F 43% 30.15 in 10.0 mi WSW 10.4 mph - N/A   Overcast
5:53 PM 32.0 °F 24.2 °F 14.0 °F 48% 30.15 in 10.0 mi SSW 9.2 mph - N/A   Overcast
6:53 PM 30.9 °F 25.2 °F 16.0 °F 54% 30.16 in 10.0 mi SW 5.8 mph - N/A   Overcast
7:53 PM 30.9 °F 24.3 °F 15.1 °F 52% 30.15 in 10.0 mi SW 6.9 mph - N/A   Overcast
9:53 PM 30.0 °F 24.1 °F 16.0 °F 56% 30.14 in 10.0 mi South 5.8 mph - N/A   Overcast
10:53 PM 30.0 °F 26.5 °F 17.1 °F 59% 30.13 in 10.0 mi SSE 3.5 mph - N/A   Overcast
11:53 PM 28.9 °F 22.8 °F 17.1 °F 61% 30.11 in 10.0 mi South 5.8 mph - N/A   Overcast